PERSEUS-M2

Last updated on Tue Sep 16 2025 00:03:48 GMT+0000 (Coordinated Universal Time)

1 40037U 14033AD 25258.56269986 .00001530 00000+0 14866-3 0 9994 2 40037 97.9599 199.3639 0013459 125.3784 234.8695 14.94082520609755
UTC large
Height (km)
Speed (km/s)
/
Latitude / Longitude
Inclination (degrees)
Orbital Period (minutes)
Azimuth
Elevation
Range (km)
Doppler Factor

Next 0 passes for location: London (51.5072 / 0.1276)

Sorry there are no passes over London.